Other Public Products
Issued by NWS Grand Forks, ND

Home | Current Version | Previous Version | Text Only | Print | Product List | Glossary On
Versions: 1 2 3 4 5 6 7 8 9 10 11 12 13 14 15 16 17 18 19 20 21 22 23 24 25 26 27 28 29 30 31 32 33 34 35 36 37 38 39 40 41 42 43 44 45 46 47 48 49 50
000
FPUS83 KFGF 281331
OPUFGF
PRAIRIE TO PINES WEATHER ROUNDUP
NATIONAL WEATHER SERVICE EASTERN NORTH DAKOTA/GRAND FORKS ND
800 AM CDT SAT MAY 28 2016

 **SATELLITE DATA USED TO AUGMENT SKY COVER AT AUTOMATED STATIONS**
 *****  WEATHER ACROSS EASTERN NORTH DAKOTA  *****

CITY           SKY/WX    TMP DP  RH WIND       PRES   REMARKS
GRAND FORKS    PTSUNNY   64  55  72 CALM      29.83S
GRAND FORKS AF MOSUNNY   63  57  81 SE2       29.84S
GRAND CITY NWS   N/A     63 N/A N/A NW5         N/A
BUXTON           N/A     66  61  84 NW3         N/A
DEVILS LAKE    CLOUDY    56  55  97 N6        29.88R FOG
FARGO          MOSUNNY   62  57  83 NE7       29.80S
WAHPETON ARPT  CLOUDY    63  54  72 NE7       29.80S
$$

 *****  WEATHER ACROSS CENTRAL AND WESTERN NORTH DAKOTA  *****

CITY           SKY/WX    TMP DP  RH WIND       PRES   REMARKS
JAMESTOWN      CLOUDY    61  58  90 N12       29.83S
BISMARCK       CLOUDY    58  55  90 E8        29.87S FOG
MINOT          CLOUDY    57  53  86 N8        29.89S
MINOT AFB      CLOUDY    54  52  92 N8        29.89S
GARRISON         N/A     56  54  93 NE6       29.88S
WILLISTON      CLOUDY    56  52  86 E9        29.89S
DICKINSON      FOG       50  50 100 E7        29.86R VSB 1
HETTINGER      CLOUDY    56  49  77 NW3       29.88R
$$

 *****  OTHER OBSERVATIONS NORTHEAST NORTH DAKOTA  *****

CITY           SKY/WX    TMP DP  RH WIND       PRES   REMARKS
WALHALLA       LGT RAIN  57  57 100 N6        29.87S
LANGDON        FOG       55  55 100 N10       29.88R VSB 1/4
CAVALIER       CLOUDY    59  59 100 N3        29.86S FOG
GRAFTON        PTSUNNY   63  59  88 CALM      29.86F
CANDO          CLOUDY    55  55 100 N9        29.91R
FORT TOTTEN      N/A     56  56 100 NE3       29.95S
ROLLA          FOG       50  50 100 N12       29.91S VSB 1/2
RUGBY          CLOUDY    54  54 100 NE8       29.89S
 ***** THE ABOVE OBSERVATIONS ARE NON NWS ARE NOT QUALITY
        CONTROLLED AND MAY MIS-REPORT RAIN FOR SNOW...
$$

 *****  OTHER OBSERVATIONS SOUTHEAST NORTH DAKOTA *****

CITY           SKY/WX    TMP DP  RH WIND       PRES   REMARKS
COOPERSTOWN    NOT AVBL
VALLEY CITY    CLOUDY    59  59 100 NE6       29.85S
OAKES            N/A    N/A N/A N/A MISG        N/A
GWINNER        CLOUDY    61  59  94 N6        29.82R
SHEYENNE NWR     N/A     60  58  94 E6        29.95S
BUFFALO          N/A     60  58  92 NE3         N/A
WYNDMERE         N/A     61  57  88 NE5         N/A
 ***** THE ABOVE OBSERVATIONS ARE NON NWS ARE NOT QUALITY
       CONTROLLED AND MAY MIS-REPORT RAIN FOR SNOW...
$$

  *****  WEATHER ACROSS NORTHERN MINNESOTA  *****

CITY           SKY/WX    TMP DP  RH WIND       PRES   REMARKS
FLAG ISLAND    CLOUDY    61  57  88 NE9       29.87R
WARROAD        CLOUDY    61  57  88 NE6       29.87S
ROSEAU         CLOUDY    61  55  82 NE8       29.87R
HALLOCK        CLOUDY    63  57  82 NE3       29.85S
THF RVR FALLS  MOSUNNY   63  54  72 NE8       29.85S
HALSTAD        NOT AVBL
FOSSTON        MOSUNNY   61  55  82 NE5       29.82F
BAUDETTE       LGT RAIN  59  57  93 NE6       29.85S
WASKISH        CLOUDY    57  55  94 NE9G17    29.83S
CROOKSTON      SUNNY     63  57  82 NE3       29.83F
$$
  *****  WEATHER ACROSS CENTRAL AND WEST MINNESOTA  *****

CITY           SKY/WX    TMP DP  RH WIND       PRES   REMARKS
BEMIDJI        CLOUDY    57  54  88 N9        29.81S
PARK RAPIDS    CLOUDY    59  53  80 VRB6      29.80F
WADENA         MOSUNNY   57  54  88 NE6       29.79F
DETROIT LAKES  MOSUNNY   57  54  88 NE3       29.82S
MOORHEAD       MOSUNNY   63  55  77 E8        29.81S
FERGUS FALLS   MOSUNNY   61  57  88 NE8       29.77R
ELBOW LAKE     FAIR      59  56  89 NE8       29.79S
MORRIS MN      CLOUDY    61  57  88 NE7       29.77S
STAPLES        CLOUDY    57  54  88 NE5       29.79S
WHEATON        CLOUDY    63  57  82 NE7       29.81S
$$
  *****  WEATHER ELSEWHERE ACROSS MINNESOTA  *****

CITY           SKY/WX    TMP DP  RH WIND       PRES   REMARKS
DULUTH         DRZL/FOG  50  49  96 SE6       29.78S VSB 1/2
INTRNTL FALLS  CLOUDY    58  55  90 NE5       29.84F
ELY            DRIZZLE   57  55  94 NE6       29.79S
CLOQUET        FOG       48  48 100 CALM      29.79R VSB 1/4
BRAINERD       CLOUDY    57  55  93 NE5       29.80R
HIBBING        CLOUDY    56  55  97 VRB3      29.78S
ALEXANDRIA     CLOUDY    59  56  89 NE6       29.80R
SAINT CLOUD    CLOUDY    58  55  90 N6        29.77R
MINNEAPOLIS    CLOUDY    62  58  86 N10       29.74F
$$

  *****  WEATHER ACROSS SOUTH DAKOTA  *****

CITY           SKY/WX    TMP DP  RH WIND       PRES   REMARKS
SIOUX FALLS    HVY RAIN  61  60  97 NE3       29.75R FOG
BROOKINGS      HVY RAIN  61  59  94 NE6       29.77R FOG
WATERTOWN      CLOUDY    60  58  92 NE9       29.78R FOG
HURON          CLOUDY    60  59  96 N8        29.78R
SISSETON         N/A     61  57  87 E6        29.79R
ABERDEEN       CLOUDY    61  58  90 NE7       29.80R FOG
MITCHELL       RAIN      60  59  96 NW9       29.77S FOG
PIERRE         CLOUDY    58  53  84 NW8       29.81R
MOBRIDGE       PTSUNNY   58  52  80 NW7       29.81R
RAPID CITY     SUNNY     54  48  80 W6        29.90R
$$

  *****  SOME WEATHER IN NEARBY STATES *****

CITY           SKY/WX    TMP DP  RH WIND       PRES   REMARKS
GLASGOW MT     RAIN      52  52 100 S5        29.87S VSB 1
GREAT FALLS MT PTSUNNY   44  35  70 S7        29.96R
CHEYENNE WY    CLOUDY    51  38  60 NW8       30.01R
SCOTTSBLUFF NE SUNNY     45  42  89 NW5       29.94R
OMAHA NE       PTSUNNY   64  58  80 S10       29.76S
DES MOINES IA  CLOUDY    65  61  87 S7        29.77R
DAVENPORT IA   CLOUDY    70  66  87 S13       29.82R
CHICAGO IL     CLOUDY    71  65  81 S16G24    29.88S
EAU CLAIRE WI  CLOUDY    65  62  90 NE5       29.74S
LA CROSSE WI   CLOUDY    68  66  93 SW3       29.71S
$$

  *****  SOME NATIONAL WEATHER *****

CITY           SKY/WX    TMP DP  RH WIND       PRES   REMARKS
LA GUARDIA NY  PTSUNNY   78  66  66 SW7       30.12R
RALEIGH NC     MOSUNNY   73  64  73 CALM      30.19S
ATLANTA GA     MOSUNNY   72  61  68 S8        30.15R
NEW ORLEANS LA CLOUDY    77  71  82 SE8       29.94R
OKLAHOMA CITY  CLOUDY    65  64  97 S6        29.91R
ALBUQUERQUE NM SUNNY     52  30  43 N8        30.07R
SALT LAKE CITY PTCLDY    55  45  68 CALM      30.02R
LOS ANGELES CA CLOUDY    60  55  83 W3        29.85R
BOISE ID       MOCLDY    44  31  60 CALM      30.07R
SEATTLE WA     LGT RAIN  49  46  90 S8        30.10F
$$

*** WEATHER ACROSS MANITOBA...SASKATCHEWAN AND ONTARIO ***
                ***ONTARIO***

CITY           SKY/WX    TMP DP  RH WIND       PRES   REMARKS
GERALDTON      LGT RAIN  59  57  94 NE10G17   29.92F FOG
THUNDER BAY    LGT RAIN  59  57  94 NE5       29.82R FOG
SIOUX LOOKOUT  DRIZZLE   55  54  94 NE3       29.92R FOG
TORONTO        MOSUNNY   77  63  61 SE3       30.06S
BIG TROUT LK   CLOUDY    37  36  93 E9G18     30.19S
PICKLE LAKE    DRZL/FOG  43  43 100 NE14G20   30.03S VSB 1
DRYDEN         LGT RAIN  57  55  94 NE10      29.89S
KENORA         CLOUDY    57  55  94 E12       29.91R
$$
                *** MANITOBA***

CITY           SKY/WX    TMP DP  RH WIND       PRES   REMARKS
BRANDON        CLOUDY    52  50  93 NE18      29.93R
DAUPHIN        CLOUDY    48  46  93 N10       29.99S FOG
ISLAND LAKE    CLOUDY    41  39  93 NE9G18    30.15R
PILOT MOUND      N/A     54  54 100 N8          N/A
THE PAS        CLOUDY    45  39  81 E6        30.09S
THOMPSON       DRIZZLE   37  36  93 E5        30.20S
WINNIPEG       CLOUDY    57  57 100 NE12      29.90R
LYNN LAKE      CLOUDY    37  34  87 SE13      30.16F
CHURCHILL      CLOUDY    32  28  86 SE10      30.36F WCI  24
$$
                ***SASKATCHEWAN***

CITY           SKY/WX    TMP DP  RH WIND       PRES   REMARKS
ESTEVAN        CLOUDY    50  48  93 E10       29.92S
KINDERSLEY     LGT RAIN  52  50  93 S9        29.85R
LLOYDMINSTER   LGT RAIN  54  52  94 SE8       29.85R
PRINCE ALBERT  CLOUDY    46  45  93 E10       29.98S FOG
REGINA         CLOUDY    50  48  93 E14       29.93S
YORKTON        CLOUDY    50  46  87 NE8       29.99R
N. BATTLEFORD  PTSUNNY   54  54 100 SE17G26   29.89R   C1F1C2F2C3F3C4F4C5F5C6F6C7F7C8F8C9F9CaFaCbFbCcFcCdFdCe!



USA.gov is the U.S. government's official web portal to all federal, state and local government web resources and services.